Location: Peterborough
(44.3091°N, 78.3197°W)
Time: 01:55:31
(UTC-04:00)

Vanguard 2 Rocket - Pass Details

Date: 27 March 2023
Orbit: 554 x 3314 km, 32.9° (Epoch: 02 June)

Event Time Altitude Azimuth Distance (km) Brightness Sun altitude
Rises 22:49:17 0° 259° (W) 4,030 10.6 -32.3°
Reaches altitude 10° 22:51:44 10° 252° (WSW) 3,348 10.0 -32.6°
Enters shadow 22:58:51 42° 198° (SSW) 2,409 8.7 -33.4°
Maximum altitude 22:59:58 43° 184° (S) 2,474 - -33.6°
Drops below altitude 10° 23:13:44 10° 120° (ESE) 5,503 - -35.2°
Sets 23:19:05 0° 116° (ESE) 6,857 - -35.8°
